2016-08-16 00:02:40 r, 16.04m,0000000034Hz,0000013569c,0000000.029s, 032.8C,00002195
2016-08-16 00:12:39 r, 16.18m,0000000030Hz,0000015450c,0000000.034s, 032.8C,00002195
2016-08-16 00:22:39 r, 16.34m,0000000026Hz,0000017920c,0000000.039s, 032.8C,00002195
2016-08-16 00:32:39 r, 16.77m,0000000017Hz,0000026614c,0000000.058s, 032.8C,00002195
2016-08-16 00:42:39 r, 16.47m,0000000023Hz,0000020144c,0000000.044s, 032.8C,00002195
2016-08-16 00:52:39 r, 16.33m,0000000026Hz,0000017803c,0000000.039s, 032.8C,00002195
2016-08-16 01:02:39 r, 16.25m,0000000027Hz,0000016456c,0000000.036s, 032.8C,00002195
2016-08-16 01:12:39 r, 16.52m,0000000022Hz,0000021032c,0000000.046s, 032.8C,00002195
2016-08-16 01:22:39 r, 17.91m,0000000007Hz,0000075604c,0000000.164s, 032.8C,00002195
2016-08-16 01:32:40 r, 18.35m,0000000004Hz,0000113266c,0000000.246s, 032.8C,00002195
2016-08-16 01:42:39 r, 18.21m,0000000004Hz,0000099778c,0000000.217s, 032.5C,00002195
2016-08-16 01:52:39 r, 18.29m,0000000004Hz,0000107241c,0000000.233s, 032.5C,00002195
2016-08-16 02:02:40 r, 18.13m,0000000005Hz,0000092188c,0000000.200s, 032.5C,00002195
2016-08-16 02:12:40 r, 17.42m,0000000010Hz,0000048230c,0000000.105s, 032.5C,00002195
2016-08-16 02:22:39 r, 17.75m,0000000007Hz,0000065382c,0000000.142s, 032.5C,00002195
2016-08-16 02:32:40 r, 16.38m,0000000025Hz,0000018642c,0000000.040s, 032.5C,00002195
2016-08-16 02:42:40 r, 17.06m,0000000014Hz,0000034647c,0000000.075s, 032.5C,00002195
2016-08-16 02:52:39 r, 17.58m,0000000008Hz,0000055846c,0000000.121s, 032.5C,00002195
2016-08-16 03:02:39 r, 18.20m,0000000004Hz,0000098951c,0000000.215s, 032.5C,00002195
2016-08-16 03:12:39 r, 17.76m,0000000007Hz,0000066331c,0000000.144s, 032.5C,00002195
2016-08-16 03:22:39 r, 16.89m,0000000015Hz,0000029771c,0000000.065s, 032.5C,00002195
2016-08-16 03:32:40 r, 17.01m,0000000014Hz,0000033038c,0000000.072s, 032.8C,00002195
2016-08-16 03:42:40 r, 18.08m,0000000005Hz,0000088407c,0000000.192s, 032.8C,00002195
2016-08-16 03:52:39 r, 16.54m,0000000021Hz,0000021554c,0000000.047s, 032.8C,00002195
2016-08-16 04:02:41 r, 16.41m,0000000024Hz,0000019094c,0000000.041s, 032.8C,00002195
2016-08-16 04:12:40 r, 16.26m,0000000028Hz,0000016708c,0000000.036s, 032.8C,00002195
2016-08-16 04:22:39 r, 16.74m,0000000018Hz,0000025911c,0000000.056s, 033.1C,00002195
2016-08-16 04:32:39 r, 17.36m,0000000010Hz,0000045965c,0000000.100s, 033.1C,00002195
2016-08-16 04:42:40 r, 18.67m,0000000003Hz,0000152304c,0000000.331s, 033.1C,00002195
2016-08-16 04:52:39 r, 18.66m,0000000003Hz,0000150943c,0000000.328s, 032.8C,00002195
2016-08-16 05:02:40 r, 18.41m,0000000003Hz,0000120037c,0000000.260s, 032.5C,00002195
2016-08-16 05:12:40 r, 17.85m,0000000006Hz,0000072187c,0000000.157s, 032.5C,00002195
2016-08-16 05:22:39 r, 16.96m,0000000014Hz,0000031497c,0000000.068s, 032.2C,00002195
2016-08-16 05:32:40 r, 15.58m,0000000051Hz,0000008903c,0000000.019s, 032.2C,00002195
2016-08-16 05:42:40 r, 13.81m,0000000267Hz,0000000000c,0000000.000s, 032.2C,00002195
2016-08-16 05:52:39 r, 11.93m,0000001500Hz,0000000000c,0000000.000s, 031.9C,00002195
2016-08-16 06:02:39 r, 10.16m,0000007681Hz,0000000000c,0000000.000s, 031.9C,00002195
2016-08-16 06:12:39 r, 08.67m,0000030436Hz,0000000000c,0000000.000s, 031.9C,00002195
2016-08-16 06:22:39 r, 07.56m,0000084364Hz,0000000000c,0000000.000s, 031.9C,00002195
2016-08-16 06:32:40 r, 06.80m,0000170426Hz,0000000000c,0000000.000s, 031.9C,00002195
2016-08-16 06:42:41 r, 06.29m,0000270763Hz,0000000000c,0000000.000s, 031.9C,00002195
2016-08-16 06:52:39 r, 05.94m,0000374497Hz,0000000000c,0000000.000s, 031.9C,00002195
2016-08-16 07:02:40 r, 00.00m,0000477498Hz,0000000000c,0000000.000s, 032.2C,00002195
2016-08-16 07:12:40 r, 00.00m,0000564479Hz,0000000000c,0000000.000s, 032.2C,00002195
2016-08-16 07:22:39 r, 00.00m,0000564442Hz,0000000000c,0000000.000s, 032.2C,00002195
2016-08-16 07:32:39 r, 00.00m,0000564433Hz,0000000000c,0000000.000s, 032.2C,00002195
2016-08-16 07:42:40 r, 00.00m,0000564450Hz,0000000000c,0000000.000s, 032.2C,00002195
2016-08-16 07:52:39 r, 00.00m,0000564499Hz,0000000000c,0000000.000s, 032.5C,00002195
2016-08-16 08:02:39 r, 00.00m,0000564490Hz,0000000000c,0000000.000s, 032.8C,00002195
2016-08-16 08:12:39 r, 00.00m,0000564579Hz,0000000000c,0000000.000s, 032.8C,00002195
2016-08-16 08:22:39 r, 00.00m,0000564624Hz,0000000000c,0000000.000s, 033.1C,00002195
2016-08-16 08:32:40 r, 00.00m,0000564552Hz,0000000000c,0000000.000s, 033.8C,00002195
2016-08-16 08:42:40 r, 00.00m,0000564684Hz,0000000000c,0000000.000s, 034.1C,00002195
2016-08-16 08:52:39 r, 00.00m,0000564807Hz,0000000000c,0000000.000s, 034.1C,00002195
2016-08-16 09:02:39 r, 00.00m,0000564853Hz,0000000000c,0000000.000s, 034.4C,00002195
2016-08-16 09:12:39 r, 00.00m,0000564977Hz,0000000000c,0000000.000s, 036.0C,00002195
2016-08-16 09:22:39 r, 00.00m,0000565199Hz,0000000000c,0000000.000s, 038.3C,00002195
2016-08-16 09:32:39 r, 00.00m,0000565331Hz,0000000000c,0000000.000s, 040.6C,00002195
2016-08-16 09:42:42 r, 00.00m,0000565445Hz,0000000000c,0000000.000s, 042.2C,00002195
2016-08-16 09:52:39 r, 00.00m,0000565585Hz,0000000000c,0000000.000s, 043.8C,00002195
2016-08-16 10:02:40 r, 00.00m,0000565655Hz,0000000000c,0000000.000s, 045.1C,00002195
2016-08-16 10:12:40 r, 00.00m,0000565703Hz,0000000000c,0000000.000s, 046.0C,00002195
2016-08-16 10:22:39 r, 00.00m,0000565768Hz,0000000000c,0000000.000s, 046.7C,00002195
2016-08-16 10:32:39 r, 00.00m,0000565808Hz,0000000000c,0000000.000s, 047.7C,00002195
2016-08-16 10:42:39 r, 00.00m,0000565849Hz,0000000000c,0000000.000s, 048.6C,00002195
2016-08-16 10:52:39 r, 00.00m,0000566010Hz,0000000000c,0000000.000s, 049.3C,00002195
2016-08-16 11:02:39 r, 00.00m,0000566053Hz,0000000000c,0000000.000s, 050.2C,00002195
2016-08-16 11:12:40 r, 00.00m,0000566054Hz,0000000000c,0000000.000s, 050.9C,00002195
2016-08-16 11:22:39 r, 00.00m,0000566109Hz,0000000000c,0000000.000s, 051.5C,00002195
2016-08-16 11:32:40 r, 00.00m,0000566141Hz,0000000000c,0000000.000s, 051.8C,00002195
2016-08-16 11:42:39 r, 00.00m,0000566136Hz,0000000000c,0000000.000s, 052.5C,00002195
2016-08-16 11:52:39 r, 00.00m,0000566124Hz,0000000000c,0000000.000s, 053.1C,00002195
2016-08-16 12:02:41 r, 00.00m,0000566248Hz,0000000000c,0000000.000s, 054.1C,00002195
2016-08-16 12:12:39 r, 00.00m,0000566205Hz,0000000000c,0000000.000s, 054.7C,00002195
2016-08-16 12:22:39 r, 00.00m,0000566198Hz,0000000000c,0000000.000s, 055.1C,00002195
2016-08-16 12:32:40 r, 00.00m,0000566237Hz,0000000000c,0000000.000s, 055.4C,00002195
2016-08-16 12:42:40 r, 00.00m,0000566243Hz,0000000000c,0000000.000s, 055.7C,00002195
2016-08-16 12:52:39 r, 00.00m,0000566285Hz,0000000000c,0000000.000s, 056.0C,00002195
2016-08-16 13:02:39 r, 00.00m,0000566237Hz,0000000000c,0000000.000s, 056.4C,00002195
2016-08-16 13:12:40 r, 00.00m,0000566245Hz,0000000000c,0000000.000s, 056.7C,00002195
2016-08-16 13:22:39 r, 00.00m,0000566255Hz,0000000000c,0000000.000s, 057.0C,00002195
2016-08-16 13:32:41 r, 00.00m,0000566243Hz,0000000000c,0000000.000s, 057.3C,00002195
2016-08-16 13:42:40 r, 00.00m,0000566318Hz,0000000000c,0000000.000s, 057.3C,00002195
2016-08-16 13:52:39 r, 00.00m,0000566229Hz,0000000000c,0000000.000s, 057.6C,00002195
2016-08-16 14:02:39 r, 00.00m,0000566318Hz,0000000000c,0000000.000s, 057.3C,00002195
2016-08-16 14:12:40 r, 00.00m,0000566342Hz,0000000000c,0000000.000s, 057.6C,00002195
2016-08-16 14:22:39 r, 00.00m,0000566276Hz,0000000000c,0000000.000s, 058.3C,00002195
2016-08-16 14:32:39 r, 00.00m,0000566184Hz,0000000000c,0000000.000s, 057.6C,00002195
2016-08-16 14:42:39 r, 00.00m,0000565774Hz,0000000000c,0000000.000s, 051.8C,00002195
2016-08-16 14:52:39 r, 00.00m,0000565535Hz,0000000000c,0000000.000s, 047.0C,00002195
2016-08-16 15:02:39 r, 00.00m,0000565547Hz,0000000000c,0000000.000s, 046.0C,00002195
2016-08-16 15:12:39 r, 00.00m,0000565959Hz,0000000000c,0000000.000s, 050.6C,00002195
2016-08-16 15:22:39 r, 00.00m,0000566043Hz,0000000000c,0000000.000s, 053.1C,00002195
2016-08-16 15:32:39 r, 00.00m,0000565709Hz,0000000000c,0000000.000s, 049.6C,00002195
2016-08-16 15:42:39 r, 00.00m,0000565500Hz,0000000000c,0000000.000s, 047.3C,00002195
2016-08-16 15:52:39 r, 00.00m,0000565614Hz,0000000000c,0000000.000s, 048.0C,00002195
2016-08-16 16:02:39 r, 00.00m,0000565612Hz,0000000000c,0000000.000s, 048.3C,00002195
2016-08-16 16:12:42 r, 00.00m,0000565962Hz,0000000000c,0000000.000s, 051.2C,00002195
2016-08-16 16:22:39 r, 00.00m,0000566126Hz,0000000000c,0000000.000s, 053.5C,00002195
2016-08-16 16:32:39 r, 00.00m,0000566123Hz,0000000000c,0000000.000s, 054.4C,00002195
2016-08-16 16:42:40 r, 00.00m,0000566083Hz,0000000000c,0000000.000s, 053.8C,00002195
2016-08-16 16:52:39 r, 00.00m,0000566037Hz,0000000000c,0000000.000s, 053.1C,00002195
2016-08-16 17:02:39 r, 00.00m,0000565932Hz,0000000000c,0000000.000s, 052.8C,00002195
2016-08-16 17:12:39 r, 00.00m,0000565931Hz,0000000000c,0000000.000s, 051.8C,00002195
2016-08-16 17:22:39 r, 00.00m,0000565895Hz,0000000000c,0000000.000s, 051.5C,00002195
2016-08-16 17:32:39 r, 00.00m,0000565917Hz,0000000000c,0000000.000s, 051.2C,00002195
2016-08-16 17:42:39 r, 00.00m,0000565878Hz,0000000000c,0000000.000s, 050.6C,00002195
2016-08-16 17:52:39 r, 00.00m,0000565789Hz,0000000000c,0000000.000s, 050.6C,00002195
2016-08-16 18:02:39 r, 00.00m,0000565797Hz,0000000000c,0000000.000s, 049.9C,00002195
2016-08-16 18:12:39 r, 00.00m,0000565759Hz,0000000000c,0000000.000s, 049.6C,00002195
2016-08-16 18:22:39 r, 00.00m,0000565654Hz,0000000000c,0000000.000s, 049.3C,00002195
2016-08-16 18:32:39 r, 00.00m,0000565655Hz,0000000000c,0000000.000s, 048.6C,00002195
2016-08-16 18:42:39 r, 00.00m,0000565617Hz,0000000000c,0000000.000s, 047.7C,00002195
2016-08-16 18:52:40 r, 00.00m,0000565549Hz,0000000000c,0000000.000s, 047.3C,00002195
2016-08-16 19:02:39 r, 00.00m,0000565445Hz,0000000000c,0000000.000s, 046.7C,00002195
2016-08-16 19:12:39 r, 00.00m,0000565425Hz,0000000000c,0000000.000s, 045.7C,00002195
2016-08-16 19:22:41 r, 00.00m,0000565449Hz,0000000000c,0000000.000s, 045.1C,00002195
2016-08-16 19:32:39 r, 00.00m,0000565314Hz,0000000000c,0000000.000s, 044.8C,00002195
2016-08-16 19:42:41 r, 00.00m,0000565312Hz,0000000000c,0000000.000s, 044.1C,00002195
2016-08-16 19:52:40 r, 00.00m,0000558915Hz,0000000000c,0000000.000s, 043.5C,00002195
2016-08-16 20:02:40 r, 00.00m,0000458459Hz,0000000000c,0000000.000s, 042.2C,00002195
2016-08-16 20:12:42 r, 06.00m,0000353001Hz,0000000000c,0000000.000s, 041.5C,00002195
2016-08-16 20:22:40 r, 06.51m,0000222819Hz,0000000000c,0000000.000s, 040.6C,00002195
2016-08-16 20:32:40 r, 07.03m,0000137949Hz,0000000000c,0000000.000s, 039.9C,00002195
2016-08-16 20:42:40 r, 07.76m,0000070634Hz,0000000000c,0000000.000s, 039.3C,00002195
2016-08-16 20:52:40 r, 08.83m,0000026242Hz,0000000000c,0000000.000s, 038.6C,00002195
2016-08-16 21:02:40 r, 10.32m,0000006620Hz,0000000000c,0000000.000s, 038.3C,00002195
2016-08-16 21:12:41 r, 12.14m,0000001246Hz,0000000000c,0000000.000s, 037.7C,00002195
2016-08-16 21:22:40 r, 14.10m,0000000204Hz,0000000000c,0000000.000s, 037.7C,00002195
2016-08-16 21:32:40 r, 15.89m,0000000039Hz,0000011794c,0000000.026s, 037.3C,00002195
2016-08-16 21:42:40 r, 16.99m,0000000014Hz,0000032724c,0000000.071s, 037.3C,00002195
2016-08-16 21:52:40 r, 17.58m,0000000008Hz,0000055477c,0000000.120s, 037.0C,00002195
2016-08-16 22:02:40 r, 17.81m,0000000006Hz,0000068737c,0000000.149s, 036.7C,00002195
2016-08-16 22:12:41 r, 17.84m,0000000006Hz,0000070998c,0000000.154s, 036.7C,00002195
2016-08-16 22:22:40 r, 17.83m,0000000006Hz,0000070458c,0000000.153s, 036.4C,00002195
2016-08-16 22:32:40 r, 17.80m,0000000007Hz,0000068329c,0000000.148s, 036.4C,00002195
2016-08-16 22:42:40 r, 17.69m,0000000007Hz,0000061736c,0000000.134s, 036.0C,00002195
2016-08-16 22:52:40 r, 17.91m,0000000006Hz,0000076677c,0000000.166s, 036.0C,00002195
2016-08-16 23:02:40 r, 17.93m,0000000006Hz,0000077728c,0000000.169s, 035.7C,00002195
2016-08-16 23:12:40 r, 18.12m,0000000005Hz,0000091750c,0000000.199s, 035.4C,00002195
2016-08-16 23:22:40 r, 18.15m,0000000005Hz,0000095030c,0000000.206s, 035.4C,00002195
2016-08-16 23:32:40 r, 18.16m,0000000005Hz,0000096044c,0000000.208s, 035.1C,00002195
2016-08-16 23:42:40 r, 18.16m,0000000005Hz,0000096095c,0000000.209s, 035.1C,00002195
2016-08-16 23:52:40 r, 18.18m,0000000005Hz,0000096819c,0000000.210s, 035.1C,00002195
